User: anonymous   Login
Location: Glion
(46.4330°N, 6.9246°E)
Time: 23:43:04
(UTC+00:00)
Language:

ERBS - Orbit

View from above orbital plane
View from above orbital plane
View from above satellite
View from above satellite

Ground track
Ground track

The orbit data is extracted from the following two-line orbital elements,

1 15354U 84108B   21128.21473733  .00003637  00000-0  65599-4 0  9990
2 15354  57.0040 102.3005 0006716 355.1314   4.9678 15.52502853 18222
Epoch (UTC): 08 May 2021 05:09:13
Eccentricity: 0.0006716
inclination: 57.0040°
perigee height: 405 km
apogee height: 414 km
right ascension of ascending node: 102.3005°
argument of perigee: 355.1314°
revolutions per day: 15.52502853
mean anomaly at epoch: 4.9678°
orbit number at epoch: 1822

The dashed part of the orbit path shows where the satellite is in the earth's shadow,  

DLR